Date,TemperatureHighF,TemperatureAvgF,TemperatureLowF,DewpointHighF,DewpointAvgF,DewpointLowF,HumidityHigh,HumidityAvg,HumidityLow,PressureMaxIn,PressureMinIn,WindSpeedMaxMPH,WindSpeedAvgMPH,GustSpeedMaxMPH,PrecipitationSumIn
2013-1-1,54.7,40.3,32.2,19.8,12.9,4.5,56,34,18,25.60,25.48,17,5,17,0.00
2013-1-2,56.8,38.2,29.1,23.7,16.2,9.5,70,42,26,25.63,25.45,20,5,20,0.00
2013-1-3,33.8,29.2,24.3,25.4,21.7,16.6,94,74,52,25.69,25.57,20,8,20,0.00
2013-1-4,44.1,28.8,23.2,28.0,22.5,19.7,97,79,44,25.69,25.57,11,4,11,0.08
2013-1-5,49.3,35.3,24.4,24.1,17.8,11.1,90,53,28,25.69,25.66,20,6,20,0.04
2013-1-6,56.5,38.7,26.6,25.1,19.4,12.9,68,47,27,25.75,25.57,13,4,13,0.04
2013-1-7,55.8,41.3,30.9,26.7,21.3,15.0,80,46,29,25.60,25.28,20,7,20,0.04
2013-1-8,35.2,30.3,27.7,31.6,26.6,22.8,93,86,78,25.37,25.25,9,4,9,0.00
2013-1-11,59.0,57.2,55.0,22.5,21.5,20.2,26,25,24,25.28,25.22,20,9,22,146.07
2013-1-12,58.5,42.7,29.3,23.6,16.7,9.0,58,36,25,25.42,25.22,20,6,20,0.75
2013-1-13,46.8,32.2,23.5,15.1,10.3,3.8,66,41,25,25.51,25.34,18,5,18,0.75
2013-1-14,79.5,25.0,20.3,20.5,17.9,11.5,89,75,53,25.48,25.34,14,5,14,0.75
2013-1-15,40.6,27.1,19.0,18.3,14.7,10.2,83,61,38,25.63,25.42,58,4,58,0.75
2013-1-16,54.1,34.6,19.2,17.0,7.8,-1.4,70,34,19,25.72,25.60,26,7,26,0.75
2013-1-17,59.4,43.9,31.1,23.1,15.5,8.2,40,32,24,25.87,25.72,17,5,17,0.00
2013-1-18,60.1,46.3,35.1,23.2,17.4,0.0,100,32,22,25.81,25.60,21,8,21,0.75
2013-1-19,69.6,55.0,43.2,22.9,16.7,8.7,30,22,17,25.69,25.51,26,8,27,0.00
2013-1-20,71.1,54.3,36.9,26.1,17.7,9.9,36,24,15,25.69,25.45,20,5,20,0.00
2013-1-21,81.5,47.5,36.5,21.8,17.5,0.0,100,31,21,25.66,25.51,14,5,14,0.00
2013-1-22,76.8,56.6,37.2,31.4,23.9,16.9,46,30,15,25.66,25.51,16,4,16,0.00
2013-1-23,74.5,59.2,46.8,30.6,25.7,20.1,41,29,18,25.75,25.57,25,6,25,0.00
2013-1-24,77.5,62.5,49.3,33.9,28.2,22.8,42,28,15,25.69,25.51,23,7,23,0.00
2013-1-25,79.2,63.1,51.6,34.7,29.3,24.6,37,29,20,25.69,25.51,23,6,23,0.00
2013-1-27,74.3,65.6,53.4,39.1,29.7,22.6,47,27,21,25.57,25.34,30,9,30,0.00
2013-1-28,71.4,62.5,54.0,37.2,25.8,19.6,52,26,17,25.42,25.22,115,13,115,10.38
2013-1-29,64.4,50.3,36.7,22.6,14.6,3.2,35,24,18,25.37,25.16,51,23,51,10.21
2013-1-30,48.9,39.4,30.6,14.9,7.0,1.0,40,26,19,25.57,25.34,35,14,35,0.00
2013-1-31,70.3,48.6,32.4,20.0,8.7,-1.3,27,20,14,25.60,25.60,19,5,20,0.00
2013-2-1,68.4,52.9,36.7,18.8,12.3,5.8,29,20,15,25.63,25.45,20,7,20,0.00
2013-2-2,66.2,52.5,41.2,17.2,11.8,4.5,30,20,15,25.72,25.57,23,6,23,9.71
2013-2-3,65.5,48.2,36.7,24.6,19.0,12.1,43,32,18,25.72,25.42,23,6,23,0.00
2013-2-4,69.3,60.0,49.5,28.7,22.9,15.9,30,24,19,25.42,25.31,33,12,33,0.00
2013-2-5,70.0,56.2,43.3,29.3,23.0,14.2,46,28,20,25.51,25.34,28,7,28,0.00
2013-2-6,73.2,58.5,45.9,31.7,25.1,20.2,38,28,19,25.45,25.28,21,6,21,0.00
2013-2-7,72.1,55.4,44.6,27.0,19.9,14.2,38,25,16,25.60,25.39,24,6,24,0.00
2013-2-8,64.2,50.5,35.1,29.0,23.4,12.9,58,36,24,25.63,25.37,57,8,57,0.24
2013-2-9,73.6,59.3,47.7,31.5,24.3,8.5,50,29,13,25.42,25.13,42,18,42,66.10
2013-2-10,64.8,49.3,37.2,19.6,12.8,5.6,30,23,17,25.45,25.28,26,8,26,0.00
2013-2-11,66.6,52.9,37.9,29.2,19.3,9.4,48,27,18,25.45,25.25,33,7,33,0.46
2013-2-12,54.3,44.3,32.9,27.3,11.9,1.0,49,27,18,25.48,25.28,44,12,44,0.09
2013-2-13,59.7,43.2,26.6,17.9,9.9,-0.7,57,28,16,25.51,25.34,25,6,25,0.00
2013-2-14,66.2,50.2,37.0,17.1,8.9,1.0,22,19,15,25.48,25.34,26,9,26,0.00
2013-2-15,46.4,36.8,30.2,25.6,19.2,2.3,71,52,19,25.75,25.48,27,9,27,0.00
2013-2-16,64.6,46.2,27.5,21.9,14.7,5.1,73,33,15,25.78,25.57,194,6,194,0.00
2013-2-17,69.8,55.2,41.5,19.8,12.0,4.5,23,18,14,25.57,25.28,29,9,29,0.00
2013-2-18,67.3,56.9,44.4,17.9,12.2,2.5,21,17,15,25.48,25.28,39,13,39,0.00
2013-2-19,60.1,50.2,42.8,27.5,12.8,2.9,53,23,16,25.51,25.31,27,7,27,0.00
2013-2-20,75.7,58.1,39.7,30.9,23.4,11.8,63,32,13,25.37,24.92,40,14,40,58.85
2013-2-21,57.9,45.2,35.1,20.2,13.1,0.3,52,29,17,25.34,25.07,50,18,50,0.00
2013-2-22,69.3,47.6,32.4,19.5,8.4,-1.0,25,20,15,25.42,25.31,33,7,33,0.00
2013-2-23,66.7,51.1,34.3,19.9,11.5,1.5,32,21,15,25.48,25.25,28,9,28,0.00
2013-2-24,72.0,59.5,40.3,20.2,13.8,0.2,20,17,14,25.28,24.98,34,13,34,0.00
2013-2-25,52.9,40.6,30.0,14.9,6.6,-2.1,37,25,18,25.39,25.19,44,18,44,0.00
2013-2-26,66.2,49.5,31.6,17.1,7.9,-2.0,23,18,15,25.37,25.19,33,11,33,0.00
2013-2-27,55.6,41.3,31.1,14.6,5.6,-5.3,31,23,16,25.63,25.28,32,10,32,0.00
2013-2-28,62.4,42.6,25.9,17.7,8.2,1.5,36,25,16,25.66,25.66,13,4,14,146.33
2013-3-1,61.3,47.4,33.1,15.6,8.0,-1.4,29,20,16,25.72,25.60,27,8,27,0.00
2013-3-2,73.6,54.7,37.4,21.1,11.3,-1.7,21,18,13,25.78,25.63,18,6,18,0.00
2013-3-3,79.0,63.1,46.9,23.4,15.6,6.8,19,16,12,25.63,25.34,32,10,32,0.00
2013-3-4,78.3,66.9,56.5,23.1,17.6,8.7,17,15,13,25.37,25.22,44,13,44,0.00
2013-3-5,65.5,48.2,35.4,27.0,18.6,10.2,58,33,15,25.75,25.37,34,11,34,0.00
2013-3-6,72.9,53.2,39.4,24.4,16.3,11.8,33,24,14,25.69,25.45,26,7,26,0.00
2013-3-7,80.6,63.3,50.4,27.4,17.9,11.9,26,18,12,25.48,25.34,21,8,21,0.00
2013-3-8,78.1,65.6,55.9,44.4,27.8,19.3,63,26,15,25.45,25.22,37,10,37,0.00
2013-3-9,73.6,61.2,43.9,45.7,23.8,5.3,67,25,16,25.31,25.13,35,12,35,0.00
2013-3-10,54.5,43.8,34.9,18.1,11.8,4.4,41,27,19,25.57,25.31,28,11,28,0.00
2013-3-11,67.1,50.7,33.4,19.2,12.3,5.7,32,22,15,25.57,25.39,26,8,26,0.00
2013-3-12,73.4,57.1,43.7,21.2,13.5,2.5,28,18,13,25.69,25.42,27,7,27,0.00
2013-3-13,78.8,59.3,36.1,27.5,18.3,11.3,40,22,12,25.72,25.57,18,5,18,0.00
2013-3-14,88.2,64.8,46.2,67.0,19.9,0.0,64,19,10,25.66,25.51,20,6,20,0.00
2013-3-15,90.5,68.4,50.0,26.7,20.8,14.6,26,17,10,25.60,25.34,18,5,18,0.00
2013-3-16,84.7,70.4,57.4,24.6,19.0,12.9,17,14,11,25.37,25.16,5,5,5,0.00
2013-3-17,79.5,68.7,57.2,23.7,18.5,12.8,17,15,12,25.31,25.16,40,13,40,0.00
2013-3-18,76.8,65.4,55.9,22.3,16.9,11.8,17,15,13,25.45,25.31,28,10,28,0.00
2013-3-19,83.7,65.4,50.4,24.5,16.9,5.9,31,16,11,25.54,25.28,26,7,26,0.00
2013-3-20,71.2,53.9,38.1,36.9,32.6,22.0,76,47,24,25.69,25.34,24,9,24,0.00
2013-3-21,82.4,67.5,52.9,37.1,27.4,15.8,52,26,11,25.37,25.07,43,12,43,0.00
2013-3-22,81.3,68.1,53.1,23.9,19.1,12.8,27,16,12,25.25,25.10,32,10,32,0.00
2013-3-23,73.8,63.3,46.6,23.2,18.1,4.1,27,18,13,25.42,25.16,47,14,47,0.00
2013-3-24,59.2,40.7,24.6,14.4,7.0,-2.0,48,26,16,25.63,25.34,27,9,27,146.33
2013-3-25,63.9,44.7,29.7,16.8,7.7,-1.8,29,22,16,25.60,25.60,20,8,25,0.00
2013-3-26,67.6,49.3,32.7,18.4,11.6,5.8,32,23,15,25.66,25.51,22,7,22,0.00
2013-3-27,81.9,61.6,45.1,30.4,22.2,14.0,36,23,12,25.57,25.42,21,8,21,0.00
2013-3-28,89.2,67.4,54.5,38.6,30.2,24.4,49,27,13,25.54,25.39,24,6,24,0.00
2013-3-29,90.9,67.7,55.0,42.8,36.2,22.9,58,35,12,25.57,25.39,13,4,13,0.00
2013-3-30,87.1,70.3,55.6,38.4,25.1,15.8,44,21,11,25.57,25.34,6,4,6,0.00
2013-3-31,66.2,64.2,60.4,20.4,16.9,15.7,19,16,15,25.42,25.37,6,3,6,0.00
2013-4-1,91.8,75.3,60.8,44.4,34.6,26.9,54,25,13,25.48,25.28,3,3,3,0.00
2013-4-2,70.9,59.3,42.6,44.1,39.2,35.8,91,49,30,25.45,25.28,172,8,172,0.00
2013-4-3,65.1,49.2,39.2,41.8,33.6,26.6,98,61,28,25.57,25.42,20,8,20,0.00
2013-4-4,81.0,58.9,37.6,32.9,25.9,14.4,64,33,13,25.60,25.48,21,6,21,0.00
2013-4-5,83.5,67.0,54.9,33.5,27.1,20.6,35,24,11,25.57,25.34,26,12,26,0.00
2013-4-6,84.0,70.2,54.5,32.4,23.5,14.4,35,18,11,0.00,40.00,27,10,28,0.00
2013-4-7,87.4,71.5,54.3,26.5,19.4,11.3,18,14,11,25.37,25.22,31,8,31,0.00
2013-4-8,84.9,73.0,58.5,24.6,20.1,13.8,17,14,11,25.25,25.04,34,10,34,0.00
2013-4-9,86.0,70.2,52.5,25.4,19.8,13.5,23,15,11,25.25,24.98,38,18,38,303.81
2013-4-10,62.2,49.7,36.9,27.6,18.0,10.6,42,29,21,25.39,25.25,24,8,24,0.00
2013-4-11,72.3,56.1,41.2,22.6,16.4,8.9,32,22,14,25.39,25.19,40,10,40,0.00
2013-4-12,85.1,65.9,47.8,29.6,18.9,7.6,28,17,11,25.34,25.16,27,9,27,0.00
2013-4-13,83.7,60.9,52.3,42.4,34.0,27.2,57,37,21,25.28,25.16,32,7,32,0.00
2013-4-14,81.9,68.0,53.8,31.7,25.0,16.1,42,22,12,25.28,25.10,33,12,231,0.00
2013-4-15,86.9,72.5,57.6,28.3,20.2,14.4,19,14,11,25.28,25.16,6,6,6,0.00
2013-4-16,90.5,76.0,60.1,52.7,25.1,14.4,57,17,10,25.34,25.16,28,9,28,0.00
2013-4-17,87.1,76.9,61.2,55.1,28.3,17.5,79,22,11,25.28,25.10,33,13,33,0.00
2013-4-18,67.5,54.8,42.1,27.3,18.7,8.3,50,25,15,25.54,25.22,24,10,24,0.00
2013-4-19,74.7,54.2,33.1,22.3,14.8,8.0,35,22,13,25.48,25.45,22,5,22,0.00
2013-4-20,80.8,63.9,48.0,25.4,18.2,9.5,26,18,12,25.51,25.22,34,10,34,0.00
2013-4-21,90.7,70.1,51.6,26.7,18.1,6.9,18,14,10,25.42,25.39,21,6,25,0.00
2013-4-22,91.6,73.5,55.4,32.2,20.8,11.3,20,14,10,25.45,25.28,29,7,29,0.00
2013-4-23,68.4,58.0,46.2,28.7,24.7,19.6,46,28,20,25.51,25.28,28,11,28,0.00
2013-4-24,71.4,48.6,29.8,30.8,23.4,17.2,64,40,22,25.66,25.48,27,8,27,0.00
2013-4-25,83.1,61.2,43.3,37.2,31.0,22.7,53,34,16,25.60,25.34,30,10,30,0.00
2013-4-26,91.2,70.7,54.3,37.2,28.2,15.4,48,24,10,25.57,25.42,31,8,31,0.00
2013-4-27,81.9,67.2,50.7,47.0,30.4,17.9,56,26,17,25.60,25.42,26,8,26,0.00
2013-4-28,85.3,66.1,54.7,53.2,43.6,23.2,79,49,15,25.54,25.37,44,7,44,0.00
2013-4-29,93.2,70.0,50.4,44.3,34.0,23.1,71,33,11,25.45,25.22,23,4,23,0.00
2013-4-30,99.0,77.0,60.4,34.8,27.5,19.6,28,17,10,25.31,25.16,27,10,27,0.00
2013-5-1,100.0,78.9,63.1,34.9,23.6,15.8,18,13,9,25.45,25.22,36,6,36,0.00
2013-5-2,67.1,44.2,35.6,35.9,24.5,14.2,97,50,17,25.87,25.42,32,20,32,0.00
2013-5-3,72.5,45.5,28.4,21.0,16.1,12.6,57,35,14,25.84,25.60,15,5,15,0.00
2013-5-5,64.4,63.8,63.1,17.1,16.6,15.8,16,16,15,25.48,25.45,33,18,33,1.00
2013-5-6,87.1,69.1,56.1,33.6,25.1,15.9,32,20,12,25.48,25.31,33,10,33,0.67
2013-5-7,88.0,70.7,56.5,36.0,27.5,16.9,37,22,11,25.48,25.31,28,7,28,0.00
2013-5-8,89.6,73.0,57.6,43.1,30.1,18.5,57,24,10,25.42,25.31,27,7,27,0.00
2013-5-9,85.3,72.0,59.4,29.5,21.3,14.4,22,15,11,25.45,25.28,38,9,38,0.04
2013-5-10,72.9,62.5,48.9,47.6,34.4,22.5,91,39,20,25.66,25.39,58,10,229,0.00
2013-5-11,70.5,57.5,44.1,46.8,39.6,32.3,97,57,28,25.72,25.60,25,8,115,0.00
2013-5-12,75.6,61.6,48.9,37.9,31.4,24.9,58,35,18,25.75,25.57,26,8,26,0.00
2013-5-13,81.9,65.6,48.0,40.0,32.0,25.7,47,30,17,25.75,25.57,24,6,229,0.00
2013-5-14,87.3,67.9,54.0,47.0,37.0,24.4,70,35,15,25.63,25.39,42,10,42,0.04
2013-5-15,87.4,72.1,55.9,43.1,32.0,24.1,60,26,13,25.54,25.31,34,12,34,0.13
2013-5-16,96.1,81.7,69.6,33.2,26.7,18.5,17,14,10,25.42,25.28,32,9,32,0.00
2013-5-17,99.5,82.7,66.7,34.7,25.7,17.6,15,13,10,25.37,25.25,28,7,28,0.00
2013-5-18,95.2,80.2,66.6,33.0,24.1,17.4,15,13,10,25.39,25.22,28,8,28,0.09
2013-5-19,90.9,77.7,64.2,32.2,22.8,15.8,16,13,10,25.39,25.22,32,10,32,0.00
2013-5-20,93.2,79.6,64.0,32.7,24.1,15.8,16,13,10,25.42,25.22,30,7,30,1.80
2013-5-21,95.7,76.1,62.8,32.8,21.8,15.8,16,13,10,25.48,25.25,26,8,26,0.00
2013-5-22,96.1,78.4,61.2,44.5,31.2,17.2,36,20,11,25.42,25.22,23,8,23,0.00
2013-5-23,98.2,75.1,59.9,57.5,46.2,30.5,86,43,11,25.63,25.28,35,9,35,0.37
2013-5-24,94.3,73.3,60.6,56.5,46.6,40.0,84,43,17,25.54,25.39,29,8,29,0.38
2013-5-25,96.8,75.5,62.1,55.0,45.6,31.2,77,40,13,25.57,25.39,26,9,26,0.00
2013-5-26,98.8,84.0,64.2,54.7,41.1,30.3,67,26,10,25.60,25.34,25,9,25,0.00
2013-5-27,99.5,81.1,67.6,54.4,44.5,29.8,57,33,10,25.42,25.22,29,12,29,0.12
2013-5-28,94.5,78.9,68.0,57.9,46.0,30.6,68,38,11,25.31,25.13,31,10,31,0.21
2013-5-29,92.5,77.4,64.4,57.7,38.8,19.6,76,34,10,25.31,25.16,35,10,35,0.05
2013-5-30,94.3,80.4,65.7,33.0,25.0,16.6,15,13,11,25.39,25.25,28,8,28,0.00
2013-5-31,100.8,84.5,66.2,34.9,26.6,17.2,15,12,10,25.31,25.31,24,6,26,0.00
2013-6-1,93.9,81.4,67.6,51.8,28.3,18.4,47,15,10,25.48,25.28,30,10,30,0.00
2013-6-2,87.3,74.6,65.1,54.9,49.1,41.3,63,42,25,25.57,25.34,181,12,181,0.20
2013-6-3,94.5,78.6,59.5,57.6,41.9,35.2,92,32,14,25.63,25.34,34,7,34,0.17
2013-6-4,100.8,83.0,71.1,49.5,40.0,31.5,44,25,10,25.45,25.31,30,9,30,0.21
2013-6-5,104.9,86.5,70.2,39.3,33.7,28.2,32,16,9,25.39,25.28,20,7,20,0.12
2013-6-6,85.3,74.3,59.5,50.1,43.0,33.5,57,34,21,25.48,25.31,23,11,23,0.00
2013-6-7,72.0,66.0,62.1,54.8,52.2,48.5,71,62,46,25.48,25.42,13,5,13,0.00
2013-6-9,96.3,85.4,60.4,52.5,39.7,30.3,75,22,11,25.48,25.39,29,13,29,3.55
2013-6-10,100.8,81.6,66.4,56.8,42.1,28.2,69,30,10,25.54,25.39,26,9,26,0.00
2013-6-11,101.1,80.6,66.0,52.2,42.5,30.3,61,32,10,25.54,25.39,115,10,115,0.04
2013-6-12,102.4,80.9,65.7,54.2,46.0,32.2,64,35,10,25.54,25.39,115,9,115,0.00
2013-6-13,91.8,70.1,63.1,59.6,55.2,44.0,85,63,21,25.51,25.42,25,6,25,0.00
2013-6-14,89.6,67.7,63.3,62.5,58.4,46.7,90,75,24,25.48,25.34,24,4,24,0.08
2013-6-15,95.4,77.3,62.2,60.8,52.6,37.8,93,51,17,25.51,25.39,15,5,229,0.00
2013-6-16,100.8,80.8,66.0,59.9,52.1,38.0,75,44,13,25.48,25.34,17,5,17,0.00
2013-6-17,101.1,78.4,68.4,63.3,49.6,40.5,72,40,15,25.51,25.37,28,4,28,0.46
2013-6-18,97.3,80.7,60.6,61.8,52.5,44.7,80,41,20,25.54,25.31,20,7,20,0.63
2013-6-19,96.4,80.6,67.6,58.8,49.2,30.3,73,40,11,25.42,25.31,38,10,38,1.38
2013-6-20,93.7,80.0,68.9,56.6,48.2,32.4,58,36,12,25.51,25.34,33,10,33,0.46
2013-6-21,98.8,78.4,66.2,61.4,50.3,37.2,72,42,16,25.54,25.34,27,6,27,0.50
2013-6-22,105.4,78.1,67.8,58.0,50.2,34.4,68,42,11,25.48,25.31,18,6,18,0.50
2013-6-23,103.3,81.4,69.6,54.3,47.6,32.7,55,35,9,25.42,25.31,26,9,26,0.46
2013-6-24,97.9,80.2,69.6,52.9,48.4,39.9,53,36,16,25.48,25.31,26,9,26,0.46
2013-6-25,104.7,82.7,71.2,54.9,49.1,36.4,56,35,12,25.39,25.31,17,6,17,0.00
2013-6-26,87.4,75.9,72.9,57.4,51.5,40.7,58,44,22,25.37,25.34,21,6,21,0.00
2013-7-1,64.0,63.7,63.3,48.5,48.2,47.8,57,57,57,0.00,40.00,5,4,6,0.00
2013-7-3,87.1,78.5,70.7,35.5,31.6,27.4,22,18,16,25.54,25.45,13,7,14,0.00
2013-7-4,95.2,81.8,70.2,39.3,34.4,30.3,31,19,11,25.51,25.37,25,11,25,0.00
2013-7-5,100.8,80.9,67.1,43.2,38.0,30.3,37,24,10,25.48,25.34,27,9,27,0.04
2013-7-6,103.1,80.9,68.5,80.2,38.9,0.0,100,24,10,25.45,25.31,26,9,26,0.00
2013-7-7,96.4,79.5,66.0,47.1,39.1,31.0,39,25,11,25.51,25.37,26,8,26,0.00
2013-7-8,91.6,78.6,67.3,53.6,47.5,0.0,57,36,18,25.60,25.45,25,9,25,0.00
2013-7-9,93.9,74.5,64.9,55.5,51.4,43.5,69,47,20,25.63,25.57,20,6,20,0.00
2013-7-10,81.5,81.5,81.5,47.1,47.1,47.1,30,30,30,0.00,40.00,5,5,8,0.00
2013-7-11,0.0,0.0,0.0,0.0,0.0,0.0,0,0,100,25.42,25.42,0,0,0,0.00
2013-7-12,0.0,0.0,0.0,0.0,0.0,0.0,0,0,100,25.42,25.42,0,0,0,0.00